| time (UTC) | temp C | wind direction | speed KPH | gust KPH | rain 1hr cm | rain 24hr cm | rain mn cm | humidity % | barometer mb |
| 20260505035842 | 10 | 216 | 0.0 | 0.0 | 0.00 | 0.00 | 0.05 | 30 | 1013.9 |
| 20260505035413 | 10 | 216 | 0.0 | 0.0 | 0.00 | 0.00 | 0.05 | 31 | 1013.9 |
| 20260505034832 | 10 | 216 | 0.0 | 0.0 | 0.00 | 0.00 | 0.05 | 31 | 1013.9 |
| 20260505034340 | 10 | 216 | 0.0 | 0.0 | 0.00 | 0.00 | 0.05 | 32 | 1013.6 |
| 20260505033829 | 9 | 216 | 0.0 | 0.0 | 0.00 | 0.00 | 0.05 | 32 | 1013.6 |
| 20260505033339 | 9 | 221 | 0.0 | 0.0 | 0.00 | 0.00 | 0.05 | 33 | 1013.6 |
| 20260505032841 | 10 | 221 | 0.0 | 0.0 | 0.00 | 0.00 | 0.05 | 34 | 1012.9 |
| 20260505032330 | 10 | 221 | 0.0 | 0.0 | 0.00 | 0.00 | 0.05 | 33 | 1012.9 |
| 20260505031901 | 10 | 221 | 0.0 | 0.0 | 0.00 | 0.00 | 0.05 | 32 | 1012.9 |
| 20260505031349 | 10 | 221 | 0.0 | 0.0 | 0.00 | 0.00 | 0.05 | 31 | 1013.0 |
| 20260505030831 | 11 | 221 | 0.0 | 0.0 | 0.00 | 0.00 | 0.05 | 30 | 1013.0 |
| 20260505030340 | 11 | 221 | 0.0 | 0.0 | 0.00 | 0.00 | 0.05 | 29 | 1013.0 |
| 20260505025851 | 11 | 221 | 0.0 | 0.0 | 0.00 | 0.00 | 0.05 | 28 | 1012.9 |
| 20260505025356 | 11 | 221 | 0.0 | 0.0 | 0.00 | 0.00 | 0.05 | 28 | 1012.9 |
| 20260505024838 | 11 | 221 | 0.0 | 0.0 | 0.00 | 0.00 | 0.05 | 28 | 1012.9 |
| 20260505024404 | 11 | 221 | 0.0 | 0.0 | 0.00 | 0.00 | 0.05 | 28 | 1013.0 |
| 20260505023830 | 11 | 221 | 0.0 | 0.0 | 0.00 | 0.00 | 0.05 | 28 | 1013.0 |
| 20260505023338 | 11 | 221 | 0.0 | 0.0 | 0.00 | 0.00 | 0.05 | 28 | 1013.0 |
| 20260505022842 | 11 | 222 | 0.0 | 0.0 | 0.00 | 0.00 | 0.05 | 28 | 1013.2 |
| 20260505022330 | 12 | 222 | 0.0 | 0.0 | 0.00 | 0.00 | 0.05 | 28 | 1013.2 |
| 20260505021842 | 12 | 221 | 0.0 | 0.0 | 0.00 | 0.00 | 0.05 | 27 | 1013.2 |
| 20260505021344 | 12 | 222 | 0.0 | 0.0 | 0.00 | 0.00 | 0.05 | 26 | 1013.2 |
| 20260505020852 | 12 | 222 | 0.0 | 0.0 | 0.00 | 0.00 | 0.05 | 26 | 1013.2 |
| 20260505020341 | 13 | 221 | 0.0 | 0.0 | 0.00 | 0.00 | 0.05 | 24 | 1013.2 |
| 20260505015853 | 13 | 221 | 0.0 | 0.0 | 0.00 | 0.00 | 0.05 | 24 | 1013.5 |
| 20260505015328 | 13 | 222 | 0.0 | 0.0 | 0.00 | 0.00 | 0.05 | 23 | 1013.5 |
| 20260505014838 | 13 | 222 | 0.0 | 0.0 | 0.00 | 0.00 | 0.05 | 23 | 1013.5 |
| 20260505014347 | 13 | 222 | 0.0 | 0.0 | 0.00 | 0.00 | 0.05 | 22 | 1013.4 |
| 20260505013850 | 13 | 221 | 1.6 | 0.0 | 0.00 | 0.00 | 0.05 | 22 | 1013.4 |
| 20260505013334 | 14 | 221 | 1.6 | 0.0 | 0.00 | 0.00 | 0.05 | 22 | 1013.4 |
| 20260505012841 | 14 | 235 | 0.0 | 0.0 | 0.00 | 0.00 | 0.05 | 22 | 1013.6 |
| 20260505012352 | 14 | 236 | 1.6 | 0.0 | 0.00 | 0.00 | 0.05 | 22 | 1013.6 |
| 20260505011835 | 14 | 236 | 3.2 | 0.0 | 0.00 | 0.00 | 0.05 | 21 | 1013.6 |
| 20260505011344 | 15 | 232 | 4.8 | 0.0 | 0.00 | 0.00 | 0.05 | 20 | 1013.7 |
| 20260505010855 | 15 | 208 | 4.8 | 0.0 | 0.00 | 0.00 | 0.05 | 20 | 1013.7 |
| 20260505010336 | 15 | 224 | 4.8 | 0.0 | 0.00 | 0.00 | 0.05 | 20 | 1013.7 |
| 20260505005829 | 15 | 225 | 6.4 | 0.0 | 0.00 | 0.00 | 0.05 | 19 | 1013.9 |
| 20260505005408 | 15 | 257 | 6.4 | 0.0 | 0.00 | 0.00 | 0.05 | 19 | 1013.9 |
| 20260505004837 | 15 | 233 | 4.8 | 0.0 | 0.00 | 0.00 | 0.05 | 19 | 1013.9 |
| 20260505004340 | 15 | 230 | 4.8 | 0.0 | 0.00 | 0.00 | 0.05 | 18 | 1014.0 |
| 20260505003828 | 15 | 254 | 4.8 | 0.0 | 0.00 | 0.00 | 0.05 | 19 | 1014.0 |
| 20260505003330 | 15 | 244 | 6.4 | 0.0 | 0.00 | 0.00 | 0.05 | 19 | 1014.0 |
| 20260505002841 | 15 | 242 | 8.0 | 0.0 | 0.00 | 0.00 | 0.05 | 18 | 1014.0 |
| 20260505002329 | 15 | 248 | 6.4 | 0.0 | 0.00 | 0.00 | 0.05 | 18 | 1014.0 |
| 20260505001833 | 15 | 257 | 6.4 | 0.0 | 0.00 | 0.00 | 0.05 | 18 | 1014.0 |
| 20260505001358 | 15 | 228 | 6.4 | 0.0 | 0.00 | 0.00 | 0.05 | 18 | 1014.2 |
| 20260505000846 | 16 | 252 | 8.0 | 0.0 | 0.00 | 0.00 | 0.05 | 18 | 1014.2 |
| 20260505000335 | 16 | 260 | 8.0 | 0.0 | 0.00 | 0.00 | 0.05 | 17 | 1014.2 |
| 20260504235903 | 16 | 249 | 6.4 | 0.0 | 0.00 | 0.00 | 0.05 | 17 | 1014.3 |
| 20260504235345 | 16 | 259 | 6.4 | 0.0 | 0.00 | 0.00 | 0.05 | 16 | 1014.3 |
| 20260504234846 | 16 | 245 | 8.0 | 0.0 | 0.00 | 0.00 | 0.05 | 16 | 1014.3 |
| 20260504234335 | 16 | 236 | 6.4 | 0.0 | 0.00 | 0.00 | 0.05 | 16 | 1014.5 |
| 20260504233846 | 16 | 262 | 6.4 | 0.0 | 0.00 | 0.00 | 0.05 | 18 | 1014.5 |
| 20260504233348 | 16 | 266 | 9.7 | 0.0 | 0.00 | 0.00 | 0.05 | 18 | 1014.5 |
| 20260504232836 | 16 | 262 | 8.0 | 0.0 | 0.00 | 0.00 | 0.05 | 18 | 1014.5 |
| 20260504232344 | 16 | 220 | 8.0 | 0.0 | 0.00 | 0.00 | 0.05 | 19 | 1014.5 |
| 20260504231845 | 16 | 209 | 9.7 | 0.0 | 0.00 | 0.00 | 0.05 | 19 | 1014.5 |
| 20260504231332 | 16 | 248 | 9.7 | 0.0 | 0.00 | 0.00 | 0.05 | 20 | 1014.0 |
| 20260504230834 | 16 | 257 | 8.0 | 0.0 | 0.00 | 0.00 | 0.05 | 20 | 1014.0 |
| 20260504230343 | 16 | 195 | 8.0 | 0.0 | 0.00 | 0.00 | 0.05 | 20 | 1014.0 |
| 20260504225833 | 16 | 195 | 8.0 | 0.0 | 0.00 | 0.00 | 0.05 | 20 | 1014.1 |
| 20260504225335 | 16 | 191 | 8.0 | 0.0 | 0.00 | 0.00 | 0.05 | 20 | 1014.1 |
| 20260504224834 | 16 | 259 | 9.7 | 0.0 | 0.00 | 0.00 | 0.05 | 20 | 1014.1 |
| 20260504224344 | 16 | 255 | 9.7 | 0.0 | 0.00 | 0.00 | 0.05 | 20 | 1014.2 |
| 20260504223834 | 16 | 240 | 11.3 | 0.0 | 0.00 | 0.00 | 0.05 | 21 | 1014.2 |
| 20260504223404 | 16 | 227 | 9.7 | 0.0 | 0.00 | 0.00 | 0.05 | 21 | 1014.2 |
| 20260504222853 | 16 | 253 | 8.0 | 0.0 | 0.00 | 0.00 | 0.05 | 20 | 1014.1 |
| 20260504222335 | 16 | 203 | 9.7 | 0.0 | 0.00 | 0.00 | 0.05 | 21 | 1014.1 |
| 20260504221844 | 16 | 212 | 11.3 | 0.0 | 0.00 | 0.00 | 0.05 | 22 | 1014.1 |
| 20260504221353 | 16 | 200 | 12.9 | 0.0 | 0.00 | 0.00 | 0.05 | 20 | 1014.2 |
| 20260504220833 | 16 | 217 | 12.9 | 0.0 | 0.00 | 0.00 | 0.05 | 21 | 1014.2 |
| 20260504220343 | 16 | 253 | 11.3 | 0.0 | 0.00 | 0.00 | 0.05 | 21 | 1014.2 |
| 20260504215852 | 16 | 204 | 9.7 | 0.0 | 0.00 | 0.00 | 0.05 | 22 | 1014.9 |
| 20260504215412 | 16 | 276 | 9.7 | 0.0 | 0.00 | 0.00 | 0.05 | 23 | 1014.9 |
| 20260504214839 | 16 | 243 | 11.3 | 0.0 | 0.00 | 0.00 | 0.05 | 25 | 1014.9 |
| 20260504214404 | 16 | 268 | 9.7 | 0.0 | 0.00 | 0.00 | 0.05 | 24 | 1015.3 |
| 20260504213847 | 16 | 250 | 11.3 | 0.0 | 0.00 | 0.00 | 0.05 | 22 | 1015.3 |
| 20260504213357 | 16 | 268 | 11.3 | 0.0 | 0.00 | 0.00 | 0.05 | 22 | 1015.3 |
| 20260504212845 | 16 | 226 | 11.3 | 0.0 | 0.00 | 0.00 | 0.05 | 22 | 1015.2 |
| 20260504212351 | 16 | 267 | 9.7 | 0.0 | 0.00 | 0.00 | 0.05 | 22 | 1015.2 |
| 20260504211851 | 16 | 262 | 9.7 | 0.0 | 0.00 | 0.00 | 0.05 | 25 | 1015.2 |
| 20260504211339 | 16 | 266 | 9.7 | 0.0 | 0.00 | 0.00 | 0.05 | 23 | 1015.3 |
| 20260504210848 | 16 | 220 | 8.0 | 0.0 | 0.00 | 0.00 | 0.05 | 24 | 1015.3 |
| 20260504210329 | 17 | 274 | 8.0 | 0.0 | 0.00 | 0.00 | 0.05 | 25 | 1015.3 |
| 20260504205839 | 17 | 241 | 8.0 | 0.0 | 0.00 | 0.00 | 0.05 | 25 | 1015.8 |
| 20260504205341 | 17 | 243 | 6.4 | 0.0 | 0.00 | 0.00 | 0.05 | 24 | 1015.8 |
| 20260504204908 | 16 | 233 | 8.0 | 0.0 | 0.00 | 0.00 | 0.05 | 23 | 1015.8 |
| 20260504204334 | 16 | 207 | 8.0 | 0.0 | 0.00 | 0.00 | 0.05 | 25 | 1016.1 |
| 20260504203858 | 16 | 252 | 8.0 | 0.0 | 0.00 | 0.00 | 0.05 | 27 | 1016.1 |
| 20260504203337 | 16 | 193 | 8.0 | 0.0 | 0.00 | 0.00 | 0.05 | 25 | 1016.1 |
| 20260504202850 | 16 | 262 | 8.0 | 0.0 | 0.00 | 0.00 | 0.05 | 28 | 1015.9 |
| 20260504202346 | 16 | 210 | 8.0 | 0.0 | 0.00 | 0.00 | 0.05 | 30 | 1015.9 |
| 20260504201833 | 16 | 275 | 9.7 | 0.0 | 0.00 | 0.00 | 0.05 | 29 | 1015.9 |
| 20260504201333 | 15 | 202 | 9.7 | 0.0 | 0.00 | 0.00 | 0.05 | 28 | 1015.9 |
| 20260504200842 | 15 | 161 | 9.7 | 0.0 | 0.00 | 0.00 | 0.05 | 29 | 1015.9 |
| 20260504200348 | 15 | 200 | 9.7 | 0.0 | 0.00 | 0.00 | 0.05 | 30 | 1015.9 |
| 20260504195836 | 15 | 192 | 9.7 | 0.0 | 0.00 | 0.00 | 0.05 | 30 | 1016.1 |
| 20260504195338 | 15 | 219 | 9.7 | 0.0 | 0.00 | 0.00 | 0.05 | 32 | 1016.1 |
| 20260504194851 | 15 | 285 | 11.3 | 0.0 | 0.00 | 0.00 | 0.05 | 32 | 1016.1 |
| 20260504194349 | 15 | 250 | 9.7 | 0.0 | 0.00 | 0.00 | 0.05 | 34 | 1016.1 |
| 20260504193834 | 15 | 190 | 8.0 | 0.0 | 0.00 | 0.00 | 0.05 | 33 | 1016.1 |
| 20260504193330 | 15 | 145 | 8.0 | 0.0 | 0.00 | 0.00 | 0.05 | 33 | 1016.1 |
| 20260504192840 | 15 | 233 | 8.0 | 0.0 | 0.00 | 0.00 | 0.05 | 33 | 1016.0 |
| 20260504192329 | 15 | 204 | 8.0 | 0.0 | 0.00 | 0.00 | 0.05 | 33 | 1016.0 |
| 20260504191831 | 15 | 233 | 6.4 | 0.0 | 0.00 | 0.00 | 0.05 | 33 | 1016.0 |
| 20260504191356 | 15 | 216 | 8.0 | 0.0 | 0.00 | 0.00 | 0.05 | 35 | 1016.2 |
| 20260504190844 | 15 | 203 | 9.7 | 0.0 | 0.00 | 0.00 | 0.05 | 35 | 1016.2 |
| 20260504190332 | 15 | 226 | 8.0 | 0.0 | 0.00 | 0.00 | 0.05 | 35 | 1016.2 |
| 20260504185836 | 15 | 195 | 8.0 | 0.0 | 0.00 | 0.00 | 0.05 | 36 | 1016.3 |
| 20260504185336 | 15 | 223 | 6.4 | 0.0 | 0.00 | 0.00 | 0.05 | 36 | 1016.3 |
| 20260504184914 | 15 | 248 | 8.0 | 0.0 | 0.00 | 0.00 | 0.05 | 36 | 1016.3 |
| 20260504184333 | 15 | 233 | 8.0 | 0.0 | 0.00 | 0.00 | 0.05 | 35 | 1016.7 |
| 20260504183840 | 15 | 171 | 6.4 | 0.0 | 0.00 | 0.00 | 0.05 | 36 | 1016.7 |
| 20260504183339 | 14 | 216 | 4.8 | 0.0 | 0.00 | 0.00 | 0.05 | 37 | 1016.7 |
| 20260504182911 | 14 | 233 | 6.4 | 0.0 | 0.00 | 0.00 | 0.05 | 38 | 1017.3 |
| 20260504182330 | 14 | 223 | 6.4 | 0.0 | 0.00 | 0.00 | 0.05 | 36 | 1017.3 |
| 20260504181837 | 15 | 272 | 6.4 | 0.0 | 0.00 | 0.00 | 0.05 | 35 | 1017.3 |
| 20260504181329 | 14 | 262 | 6.4 | 0.0 | 0.00 | 0.00 | 0.05 | 36 | 1016.8 |
| 20260504180829 | 14 | 217 | 6.4 | 0.0 | 0.00 | 0.00 | 0.05 | 36 | 1016.8 |
| 20260504180338 | 14 | 211 | 6.4 | 0.0 | 0.00 | 0.00 | 0.05 | 37 | 1016.8 |
| 20260504175829 | 14 | 184 | 4.8 | 0.0 | 0.00 | 0.00 | 0.05 | 38 | 1017.0 |
| 20260504175349 | 14 | 248 | 6.4 | 0.0 | 0.00 | 0.00 | 0.05 | 38 | 1017.0 |
| 20260504174833 | 13 | 297 | 8.0 | 0.0 | 0.00 | 0.00 | 0.05 | 37 | 1017.0 |
| 20260504174403 | 14 | 208 | 8.0 | 0.0 | 0.00 | 0.00 | 0.05 | 37 | 1016.8 |
| 20260504173831 | 14 | 203 | 6.4 | 0.0 | 0.00 | 0.00 | 0.05 | 38 | 1016.8 |
| 20260504173359 | 14 | 212 | 4.8 | 0.0 | 0.00 | 0.00 | 0.05 | 37 | 1016.8 |
| 20260504172845 | 14 | 158 | 6.4 | 0.0 | 0.00 | 0.00 | 0.05 | 40 | 1017.3 |
| 20260504172346 | 13 | 195 | 6.4 | 0.0 | 0.00 | 0.00 | 0.05 | 39 | 1017.3 |
| 20260504171837 | 13 | 225 | 8.0 | 0.0 | 0.00 | 0.00 | 0.05 | 40 | 1017.3 |
| 20260504171336 | 13 | 215 | 8.0 | 0.0 | 0.00 | 0.00 | 0.05 | 39 | 1017.5 |
| 20260504170913 | 13 | 164 | 6.4 | 0.0 | 0.00 | 0.00 | 0.05 | 40 | 1017.5 |
| 20260504170333 | 13 | 212 | 6.4 | 0.0 | 0.00 | 0.00 | 0.05 | 41 | 1017.5 |
| 20260504160338 | 12 | 181 | 1.6 | 0.0 | 0.00 | 0.00 | 0.05 | 54 | 1017.2 |
| 20260504150854 | 12 | 172 | 1.6 | 0.0 | 0.00 | 0.00 | 0.05 | 59 | 1017.6 |
| 20260504150337 | 12 | 169 | 0.0 | 0.0 | 0.00 | 0.00 | 0.05 | 58 | 1017.6 |
| 20260504141331 | 8 | 37 | 0.0 | 0.0 | 0.00 | 0.00 | 0.05 | 74 | 1017.7 |
| 20260504140841 | 8 | 37 | 0.0 | 0.0 | 0.00 | 0.00 | 0.05 | 74 | 1017.7 |
| 20260504140352 | 8 | 37 | 0.0 | 0.0 | 0.00 | 0.00 | 0.05 | 74 | 1017.7 |
| 20260504130344 | 7 | 37 | 0.0 | 0.0 | 0.00 | 0.00 | 0.05 | 74 | 1017.3 |
| 20260504110352 | 7 | 65 | 3.2 | 0.0 | 0.00 | 0.00 | 0.05 | 78 | 1016.2 |
| 20260504100337 | 6 | 64 | 3.2 | 0.0 | 0.00 | 0.00 | 0.05 | 83 | 1016.0 |
| 20260504081838 | 8 | 189 | 0.0 | 0.0 | 0.00 | 0.00 | 0.05 | 79 | 1017.5 |
| 20260504081338 | 8 | 189 | 0.0 | 0.0 | 0.00 | 0.00 | 0.05 | 78 | 1017.8 |
| 20260504080844 | 8 | 189 | 0.0 | 0.0 | 0.00 | 0.00 | 0.05 | 77 | 1017.8 |
| 20260504080331 | 8 | 189 | 0.0 | 0.0 | 0.00 | 0.00 | 0.05 | 76 | 1017.8 |
| 20260504070342 | 10 | 39 | 3.2 | 0.0 | 0.00 | 0.00 | 0.00 | 64 | 1018.3 |
| 20260504050352 | 11 | 31 | 6.4 | 0.0 | 0.00 | 0.00 | 0.00 | 57 | 1018.0 |
| 20260504045832 | 11 | 37 | 4.8 | 0.0 | 0.00 | 0.00 | 0.00 | 54 | 1018.2 |
| 20260504045355 | 11 | 40 | 3.2 | 0.0 | 0.00 | 0.00 | 0.00 | 54 | 1018.2 |
| 20260504044842 | 11 | 45 | 3.2 | 0.0 | 0.00 | 0.00 | 0.00 | 53 | 1018.2 |
| 20260504044353 | 11 | 46 | 4.8 | 0.0 | 0.00 | 0.00 | 0.00 | 53 | 1018.5 |
| 20260504043842 | 11 | 55 | 4.8 | 0.0 | 0.00 | 0.00 | 0.00 | 52 | 1018.5 |
| 20260504043345 | 11 | 37 | 1.6 | 0.0 | 0.00 | 0.00 | 0.00 | 55 | 1018.5 |
| 20260504042855 | 11 | 3 | 0.0 | 0.0 | 0.00 | 0.00 | 0.00 | 51 | 1018.9 |
| 20260504042338 | 11 | 1 | 0.0 | 0.0 | 0.00 | 0.00 | 0.00 | 48 | 1018.9 |
| 20260504041908 | 11 | 1 | 0.0 | 0.0 | 0.00 | 0.00 | 0.00 | 50 | 1018.9 |
| 20260504041331 | 12 | 1 | 1.6 | 0.0 | 0.00 | 0.00 | 0.00 | 52 | 1018.5 |
| 20260504040847 | 12 | 1 | 1.6 | 0.0 | 0.00 | 0.00 | 0.00 | 49 | 1018.5 |
| 20260504040329 | 12 | 13 | 4.8 | 0.0 | 0.00 | 0.00 | 0.00 | 46 | 1018.5 |